Theta_e
339 340 341 349 349 347 348 348 348 349 348 347 349 349 348 348 349 348 348 348 348 348 348 348 348 349 350 350 349 350 350 349 348 348 347 349 349 348 347 347 346 344 343 343 343 343 343 343 342 342 342 341 340 340 339 340 340 338 336 336 336 339 336 333 334 334 336 336 336 337 337 336 336 336 337 336 334 333 334 331 335 330 327 329 332
339 339 341 344 350 348 349 348 349 349 348 347 347 348 348 348 348 348 348 349 349 349 349 348 348 348 349 350 350 350 350 350 350 350 349 349 348 348 347 347 346 344 343 343 343 343 342 341 341 342 341 341 341 340 339 339 338 336 335 335 336 337 339 340 339 338 338 336 335 334 333 333 334 337 336 334 333 334 335 332 333 328 326 335 333
337 342 341 344 350 350 349 349 349 349 349 348 347 349 347 349 348 348 348 349 349 349 347 348 348 348 348 349 349 349 349 350 350 350 349 349 348 347 346 346 347 346 344 343 342 342 342 341 340 341 341 340 340 340 339 337 335 334 335 336 336 336 337 338 339 339 339 337 337 335 333 333 333 334 334 333 333 333 337 333 331 333 330 331 332
327 341 343 345 350 350 350 349 349 350 349 349 347 348 348 348 348 348 347 349 349 349 348 348 347 347 347 348 349 349 349 349 349 349 349 348 347 347 347 347 347 346 345 344 342 342 342 340 340 340 341 341 341 341 340 338 335 335 335 335 335 335 336 337 338 339 338 339 336 332 329 324 329 332 332 334 334 333 337 335 333 330 330 330 331
324 336 343 343 344 348 350 349 349 350 350 349 348 348 348 348 348 347 346 349 348 348 348 347 347 347 348 348 348 348 348 348 349 349 348 348 347 347 346 346 347 345 346 344 342 342 342 341 340 341 341 341 342 341 340 338 336 335 335 335 335 335 336 337 337 337 336 336 337 335 321 322 325 335 333 332 333 332 334 335 334 331 329 330 331
323 332 343 342 342 345 348 350 348 349 350 349 348 347 347 346 346 346 345 348 347 348 347 347 346 346 348 348 347 347 347 347 347 347 347 346 346 346 346 345 344 345 345 342 342 343 342 342 341 342 341 342 341 341 339 338 337 335 334 335 334 334 335 335 335 336 334 332 337 326 320 323 327 334 338 336 335 335 332 333 332 333 333 332 330
326 336 343 342 341 343 349 348 348 348 349 349 348 347 345 345 344 343 345 347 347 347 347 346 346 345 346 347 347 347 346 346 345 345 345 345 345 345 345 344 343 343 345 343 343 343 343 343 342 341 342 341 340 341 339 338 337 335 334 333 334 334 333 334 336 335 331 326 321 320 323 329 330 331 337 338 336 333 331 332 333 333 333 332 333
330 340 342 343 343 345 348 349 349 348 349 349 348 347 345 345 344 344 346 346 346 345 345 346 346 346 346 346 346 346 346 345 345 344 344 344 345 345 344 345 344 344 343 342 343 343 343 343 341 341 340 340 339 340 338 337 336 334 333 333 334 334 336 336 336 334 330 320 320 325 328 329 329 332 337 336 333 331 330 329 331 330 330 330 331
332 340 340 343 342 342 346 348 348 348 349 349 348 348 346 345 346 346 346 344 344 345 345 345 345 346 346 346 346 345 345 344 344 343 343 343 345 344 344 344 345 344 344 343 343 344 343 343 342 340 339 339 338 338 337 335 334 333 333 334 334 335 336 338 336 333 325 320 319 324 325 326 326 326 332 333 332 329 328 332 334 330 328 328 330
335 341 341 341 340 342 344 347 348 347 348 348 348 348 347 347 346 346 345 344 339 342 345 344 344 344 345 345 344 344 344 344 343 342 342 342 344 344 344 344 344 344 344 344 343 343 343 342 342 341 339 337 337 336 335 334 333 333 334 335 336 336 338 338 335 332 325 320 318 324 325 333 325 325 330 331 330 332 333 334 335 332 332 328 327
324 332 340 340 342 342 343 347 348 347 347 348 348 348 348 347 346 346 345 345 343 344 344 345 344 344 344 344 344 342 342 342 342 342 343 343 344 344 344 344 344 343 343 344 343 343 343 342 341 340 338 337 337 335 335 334 335 335 337 338 337 338 337 337 333 325 326 320 319 324 333 335 322 323 332 332 333 334 332 331 330 329 329 329 329
318 322 332 339 343 339 339 343 347 347 346 345 346 347 347 346 346 346 346 346 345 344 343 343 342 340 343 344 344 342 342 342 342 342 342 343 343 343 343 343 343 343 343 343 343 343 342 341 341 339 338 338 338 337 337 336 337 337 338 337 336 336 334 334 329 324 323 321 320 322 324 325 324 329 334 334 338 334 334 333 332 330 332 332 331
317 317 320 325 333 339 339 341 345 346 346 345 346 347 346 346 345 345 346 346 345 345 344 343 340 340 343 343 344 343 342 342 342 342 342 342 343 342 342 344 343 343 343 344 343 343 342 342 341 341 340 340 339 339 338 338 338 337 336 336 337 334 331 333 325 324 324 321 322 323 325 325 327 336 336 337 338 338 338 337 337 333 332 332 334
313 314 316 318 320 332 334 337 339 343 345 345 346 345 345 345 345 344 344 343 343 343 343 344 343 342 343 344 344 343 343 342 342 342 342 342 342 342 342 343 343 344 344 344 342 342 342 341 341 341 340 339 339 338 338 337 336 335 335 335 335 332 329 329 330 322 323 322 323 326 325 329 329 336 336 338 338 338 338 337 336 335 334 335 335
310 313 314 313 316 319 326 327 330 337 343 342 342 342 344 343 343 343 342 342 342 342 343 343 344 343 343 344 343 343 343 343 345 344 343 344 343 342 342 343 343 344 342 343 343 342 341 341 341 340 339 339 339 338 337 336 334 334 334 334 333 331 327 323 323 322 324 325 321 327 325 326 336 335 335 334 335 336 337 336 336 334 334 335 334
310 311 314 311 313 316 317 322 324 326 332 338 337 339 342 343 342 340 341 341 342 342 343 343 344 344 344 344 344 344 343 343 343 342 341 343 344 343 343 343 343 342 342 343 342 342 341 340 339 340 339 339 338 337 337 335 334 333 333 332 332 331 329 325 321 325 323 325 328 328 325 328 334 334 333 332 332 332 333 334 334 333 333 333 334
308 310 311 310 310 311 312 314 318 321 325 326 335 337 342 344 343 341 341 341 342 342 343 343 342 342 343 343 343 343 343 343 342 342 341 343 343 341 342 344 344 341 341 342 341 341 340 339 339 339 339 339 337 336 336 335 334 332 332 332 330 328 327 324 321 324 322 325 329 328 329 331 333 334 334 333 333 333 332 332 332 332 331 332 332
307 308 309 308 308 309 310 312 313 316 318 322 325 334 337 341 341 341 341 342 342 342 342 342 342 343 343 342 343 343 342 342 341 340 339 339 338 338 340 343 338 339 341 342 341 340 338 338 337 338 339 339 337 336 335 333 333 332 331 328 326 324 324 323 317 322 322 327 322 329 330 336 334 334 334 333 332 332 332 330 328 328 328 329 329
305 305 308 307 307 308 310 311 312 312 315 318 322 329 335 336 338 339 340 341 341 340 340 340 341 340 340 340 342 342 341 341 340 338 336 337 337 336 336 339 339 340 341 340 339 338 338 337 336 336 338 339 337 335 334 334 332 331 330 326 321 321 322 319 316 320 321 321 325 324 325 335 334 333 333 333 332 333 332 331 331 333 332 333 332
305 305 305 306 307 307 308 310 311 311 313 316 318 325 332 333 335 336 338 338 339 338 337 336 336 336 336 337 338 338 338 337 338 336 335 335 337 332 333 335 340 340 340 339 339 338 336 335 335 337 338 338 336 335 334 333 332 330 329 325 319 319 315 314 315 317 318 323 326 325 332 330 330 330 331 331 332 333 332 332 333 333 332 333 333
302 304 305 305 305 306 306 308 309 311 312 314 318 323 328 332 333 334 335 335 336 335 333 330 329 329 330 332 335 334 332 333 336 334 334 335 329 329 331 332 335 340 339 339 338 336 335 335 336 337 337 338 336 335 334 332 331 328 321 319 317 314 314 315 314 315 317 319 323 323 329 330 329 330 330 331 332 332 332 331 331 332 332 332 333
299 301 304 305 304 305 305 307 308 310 312 315 317 320 325 331 333 334 335 333 333 331 330 331 334 331 327 331 332 334 332 333 335 337 334 334 329 328 329 330 333 336 339 339 338 337 336 335 336 336 337 337 335 327 326 329 328 326 322 317 314 313 312 314 313 313 314 316 322 328 329 329 328 329 330 330 331 331 330 330 330 330 330 330 331
296 299 301 304 304 304 305 307 308 310 312 315 317 320 324 327 333 333 333 332 334 332 331 332 332 331 331 331 332 335 334 333 333 335 334 328 331 326 328 330 331 333 337 338 336 336 336 335 335 335 336 336 327 322 322 320 318 324 321 315 313 313 312 314 313 313 313 315 317 328 331 327 327 328 329 329 329 330 329 329 330 330 330 330 330
295 298 299 302 303 303 304 306 308 309 312 314 317 319 324 326 328 331 333 333 333 332 331 332 331 331 332 330 331 334 334 333 337 338 337 333 331 325 326 328 329 330 333 335 335 334 335 336 335 335 336 330 325 323 321 319 318 316 315 315 313 313 313 314 312 314 314 317 315 329 330 326 324 325 327 328 329 328 328 328 329 329 329 330 329
295 298 299 299 300 303 303 305 308 310 311 312 315 315 320 323 326 330 333 334 333 332 331 332 332 331 332 331 331 332 333 332 334 336 334 333 332 329 327 330 329 328 329 329 328 331 333 329 327 327 324 328 325 323 321 320 318 317 317 316 315 314 313 313 313 313 313 313 314 328 331 327 325 326 327 327 328 328 327 328 328 329 328 329 329
295 295 296 297 299 301 303 305 307 310 311 311 313 315 316 317 320 324 329 333 333 332 331 331 332 332 331 331 331 332 330 330 332 332 331 332 332 330 328 329 330 328 328 330 327 329 331 331 328 324 323 324 325 323 322 322 320 316 316 314 316 316 315 311 312 313 312 311 312 326 327 331 329 329 328 329 329 329 330 330 331 330 330 329 330
293 295 296 297 299 300 302 304 306 309 309 311 312 311 312 315 315 317 321 326 333 332 330 330 332 331 332 331 331 331 330 329 330 330 329 330 331 331 330 330 331 330 330 330 330 331 331 330 328 324 323 321 321 320 318 319 317 317 316 315 315 316 314 312 311 311 311 312 317 322 325 328 331 329 329 330 330 331 332 331 332 331 331 332 331
294 295 296 296 298 299 302 304 306 309 307 310 310 309 310 312 313 314 316 320 330 329 328 331 331 331 331 332 331 329 330 330 329 328 328 327 326 328 330 330 330 331 331 330 330 330 329 327 325 324 323 321 320 319 318 319 317 316 314 314 314 315 314 313 312 312 312 314 315 318 321 326 329 331 330 331 331 331 331 332 332 332 332 332 332
292 294 296 296 297 299 300 302 305 308 307 309 308 308 308 311 311 313 315 318 321 321 322 324 324 323 323 325 329 329 327 328 328 329 329 327 328 328 327 326 328 328 329 329 330 329 328 327 325 324 323 321 320 320 319 318 316 315 315 313 312 312 313 315 314 313 313 315 317 318 320 323 327 330 331 331 331 331 332 332 333 332 333 333 333
292 294 295 296 298 300 299 301 305 307 306 307 307 307 307 307 308 310 312 314 316 317 317 317 318 318 317 320 323 325 326 327 327 328 329 328 328 328 326 326 327 327 329 329 329 329 329 328 326 323 321 320 319 320 317 317 315 315 313 313 313 314 313 313 312 312 314 315 316 317 318 320 323 326 328 331 332 333 333 332 333 333 333 334 333
293 293 295 297 299 300 300 302 305 306 306 305 306 305 306 305 307 308 309 310 312 313 313 313 313 314 315 315 318 320 322 322 324 326 327 327 326 326 326 325 326 327 328 328 327 326 326 325 326 323 320 319 318 318 316 316 316 314 313 313 313 312 313 313 312 313 315 316 316 317 319 319 321 324 325 326 329 331 332 332 332 333 334 334 334
292 293 295 297 298 300 301 302 304 306 305 303 304 304 304 304 304 306 306 307 309 310 310 309 309 311 312 313 314 316 318 319 321 323 325 324 324 325 325 325 325 327 328 327 325 324 323 322 321 321 320 319 317 317 317 317 317 317 314 315 316 315 314 313 313 315 316 319 319 321 320 321 318 316 316 319 323 327 328 328 330 332 332 332 332
293 294 295 296 297 300 300 302 303 303 303 303 302 302 303 303 303 303 305 305 305 306 306 307 308 309 310 311 312 313 315 316 317 318 320 320 319 319 320 320 321 322 323 325 326 326 325 324 322 321 320 319 319 319 320 320 319 319 318 317 317 318 316 316 317 318 319 319 318 317 318 318 317 315 312 313 316 320 323 325 328 328 326 328 330
293 294 295 296 298 299 301 301 303 302 301 302 302 301 301 302 302 302 302 303 303 303 304 305 306 307 308 309 310 311 312 313 314 314 315 316 315 315 315 315 316 318 318 319 321 323 322 319 319 321 319 320 319 318 318 317 317 318 318 318 318 318 318 318 316 313 310 310 309 308 310 311 310 307 306 309 311 314 317 321 323 324 324 325 326
295 295 295 296 298 299 300 300 301 301 301 300 301 301 301 300 300 300 300 301 301 301 302 303 304 305 306 306 308 309 309 310 311 311 310 311 311 311 311 313 314 315 316 316 318 318 313 310 310 316 316 312 312 309 310 310 311 313 314 317 319 320 319 314 309 306 304 304 304 303 302 302 302 303 303 302 305 308 312 314 316 319 321 321 323
295 296 296 297 297 299 300 300 300 300 302 301 300 299 300 299 300 299 299 299 299 299 300 301 302 303 304 304 306 307 307 308 309 309 308 308 309 308 309 311 312 312 311 311 312 313 310 308 306 308 311 308 307 306 307 308 309 310 311 314 317 319 311 305 302 302 301 301 299 298 297 298 298 299 300 298 298 301 307 310 310 313 315 317 318
293 297 296 297 297 298 299 299 299 300 300 301 300 299 298 298 298 298 297 297 297 298 299 300 300 301 302 302 303 304 304 305 306 306 306 306 306 307 308 309 310 310 309 308 306 307 309 306 303 303 305 304 304 304 305 305 307 308 310 314 315 307 301 298 298 298 300 299 298 297 296 296 297 300 297 297 297 297 301 306 306 308 310 311 312
293 294 296 297 297 298 298 299 300 300 299 300 301 299 298 297 298 298 298 296 296 297 298 298 298 299 300 300 301 302 302 302 303 304 304 304 304 304 305 306 308 308 308 307 305 304 304 305 302 300 301 301 300 300 301 303 306 307 311 312 311 305 299 297 297 297 296 296 296 297 297 296 296 297 296 296 296 296 297 299 303 303 304 307 308
293 293 294 296 298 298 298 298 299 299 300 298 300 298 298 299 297 296 296 296 296 297 297 296 297 298 298 298 299 300 300 300 300 301 301 301 301 301 301 302 304 304 304 304 304 304 302 302 302 301 300 299 298 298 299 302 305 308 305 304 303 300 299 299 297 296 295 295 296 297 298 296 296 296 296 296 296 296 296 296 296 297 296 303 305
293 294 294 295 296 297 297 297 298 299 300 299 298 299 299 296 294 294 293 294 295 296 296 296 296 296 296 297 298 298 299 299 298 298 299 299 298 299 299 299 300 300 299 299 299 301 300 297 296 297 297 296 296 297 299 301 305 301 299 300 300 299 298 298 297 296 295 294 294 295 295 296 295 295 295 294 294 295 295 295 295 295 295 297 302
291 295 294 294 295 294 295 295 297 298 297 296 293 292 292 292 294 291 291 292 294 295 294 295 295 296 296 295 295 297 297 298 297 297 296 297 295 295 295 295 295 295 295 294 295 296 298 297 295 294 294 293 292 294 295 298 301 298 298 297 297 298 298 296 295 295 294 293 292 292 293 293 294 294 294 293 293 293 293 294 294 294 295 292 294
288 290 292 294 294 294 294 294 296 297 297 295 295 293 292 291 290 290 290 291 291 291 292 294 294 295 295 294 294 294 294 295 296 295 295 294 293 293 293 293 294 294 294 294 295 295 294 295 296 293 293 292 290 292 293 300 299 297 295 296 295 296 296 296 295 293 293 292 291 290 291 291 292 292 293 291 290 290 291 293 293 293 294 292 292
290 290 289 289 290 291 292 294 295 295 296 298 297 294 291 291 291 290 290 290 293 293 292 294 295 294 293 294 294 294 293 293 293 294 293 293 293 292 292 292 293 294 292 292 293 292 293 293 293 293 291 292 291 291 291 294 296 298 301 302 302 301 298 293 294 294 292 291 290 289 290 290 291 290 291 289 289 289 290 291 292 292 293 292 291
288 288 289 289 289 290 290 291 292 294 294 295 295 295 296 293 291 290 290 290 290 291 292 291 292 292 292 293 293 293 294 294 294 294 293 292 292 292 292 293 293 293 293 291 290 290 290 291 292 292 292 288 288 288 289 291 291 296 299 298 299 299 299 292 288 294 293 290 289 288 288 288 289 289 290 287 288 288 289 290 291 291 291 291 290
287 289 289 289 289 288 289 289 290 290 292 293 292 291 291 290 290 290 290 289 289 289 288 288 289 290 289 290 291 292 292 293 293 292 293 292 292 292 291 291 290 290 290 290 289 290 290 290 290 290 290 289 287 287 288 289 289 290 295 294 291 290 289 288 288 291 293 290 288 288 288 287 288 288 288 287 287 287 288 289 289 290 289 289 289
286 288 289 289 289 288 288 288 289 289 290 291 292 291 289 288 287 286 285 285 285 285 285 285 286 287 287 289 289 290 290 291 291 291 291 291 290 290 290 290 290 290 290 289 289 289 289 289 289 290 289 289 289 287 286 288 288 288 288 286 287 287 285 287 288 287 292 290 288 288 286 286 287 287 288 286 286 286 288 288 288 289 288 289 288
285 288 289 288 287 288 287 288 289 289 290 289 290 291 288 287 286 285 285 284 284 284 286 286 286 286 287 287 287 288 289 289 289 289 290 290 289 289 289 289 289 289 290 288 288 288 288 289 289 289 288 289 288 285 285 286 287 286 287 287 286 286 285 284 282 285 286 289 287 286 285 286 286 287 287 286 286 286 287 287 287 287 287 288 287
285 286 287 288 287 287 286 287 288 289 288 288 288 290 286 286 286 286 287 284 284 284 285 285 286 287 285 285 286 286 287 287 287 287 288 289 288 288 288 288 288 289 289 287 287 288 288 288 288 288 288 287 287 285 285 286 284 284 286 285 285 285 285 284 284 283 283 279 281 284 284 284 285 285 286 285 285 285 285 285 286 285 286 287 286
284 284 284 285 286 286 287 286 287 287 288 288 288 287 290 285 285 285 285 286 285 285 285 285 284 285 284 285 284 285 285 286 286 286 287 287 288 287 286 286 286 286 288 286 286 286 286 286 286 286 286 286 286 286 285 284 284 283 283 283 284 283 283 283 283 283 281 278 279 279 279 282 283 283 284 284 284 285 285 285 286 285 286 286 285
282 285 283 283 283 282 284 284 283 284 286 285 286 286 286 287 284 284 283 283 284 283 283 283 283 283 283 283 283 284 284 284 285 285 285 286 286 287 286 286 286 286 287 285 285 285 284 284 285 285 285 284 285 285 284 284 284 283 283 283 281 281 281 281 281 280 280 280 277 277 279 278 277 280 283 283 283 284 284 284 284 284 285 285 284
282 282 282 282 282 282 281 282 282 283 284 284 285 284 285 285 284 284 283 282 282 282 282 281 282 282 282 282 282 283 283 283 284 284 285 285 286 287 286 286 286 287 286 284 284 284 284 284 284 284 284 284 283 283 284 283 283 283 282 282 281 280 279 278 278 279 278 277 277 277 278 279 278 278 281 282 283 283 283 284 283 283 284 283 283
Wind_Speed
6 4 3 6 8 8 8 8 8 9 8 6 8 9 11 12 11 9 10 9 9 9 9 9 11 12 12 11 11 11 12 11 12 12 11 11 11 13 13 13 11 7 2 8 11 13 13 13 14 13 13 13 13 13 12 12 12 12 12 12 12 14 14 14 14 13 13 14 13 11 10 11 11 12 12 13 14 13 10 11 7 3 4 7 12
8 4 2 3 6 8 9 8 8 8 11 9 9 9 10 12 10 10 10 10 9 8 8 8 9 10 11 10 10 11 11 11 11 11 11 10 11 12 12 12 10 8 4 7 11 12 13 12 13 13 12 12 12 12 12 12 11 10 11 12 13 12 11 11 10 12 13 13 12 11 10 9 11 13 12 12 12 12 11 11 7 3 1 12 13
13 6 2 1 6 7 9 9 8 8 8 10 10 8 9 10 12 11 11 11 10 8 8 7 7 9 10 9 10 10 11 11 11 11 11 10 11 12 12 10 10 8 5 7 9 12 12 12 12 13 12 12 12 12 12 11 10 10 10 10 10 10 11 10 11 13 13 12 10 8 9 10 11 12 12 11 11 11 8 12 10 9 7 10 10
13 7 4 2 6 5 7 9 9 8 8 8 10 10 9 10 11 11 11 11 10 9 8 7 6 8 9 9 9 9 10 10 10 11 10 10 11 11 11 10 10 9 8 6 10 11 11 11 12 12 12 12 12 11 11 11 10 9 9 9 9 10 10 9 10 9 8 9 7 7 3 5 8 10 10 12 12 12 11 12 11 10 9 9 11
12 10 5 1 2 3 6 8 9 8 8 9 9 9 10 9 8 8 8 10 11 10 8 6 6 8 8 8 8 8 9 9 10 10 10 10 11 11 10 9 9 10 9 6 11 11 11 11 11 12 12 12 11 11 10 10 9 8 8 8 8 9 10 11 11 10 9 6 2 3 2 3 2 10 10 10 11 9 7 11 10 11 9 8 9
14 11 6 2 1 2 4 7 9 9 8 7 10 10 9 8 8 9 10 10 9 9 9 9 9 9 8 8 8 8 8 8 9 9 9 10 11 13 11 9 6 11 9 9 11 11 11 11 11 11 11 11 11 11 10 9 8 8 7 7 9 10 10 9 9 8 7 5 4 2 2 2 2 6 11 11 11 8 8 10 9 10 10 10 9
13 10 5 3 1 2 5 5 9 9 9 9 9 10 10 9 11 10 9 8 7 8 9 10 11 10 9 8 7 8 8 8 8 9 9 9 9 11 13 12 10 8 9 9 10 11 12 11 11 10 10 10 11 10 9 8 7 7 6 7 9 9 8 8 7 9 9 5 4 2 2 2 3 2 10 10 10 10 9 9 9 9 10 9 9
12 6 4 3 1 2 5 5 7 10 10 10 10 11 12 11 10 10 10 8 7 6 6 7 9 10 10 9 8 8 8 8 8 9 9 9 8 9 10 12 11 9 9 10 11 11 11 11 10 10 9 10 10 10 9 8 7 6 6 7 8 8 9 9 9 10 9 4 3 3 3 4 4 3 8 8 8 8 8 7 7 7 8 8 7
13 5 3 3 1 7 6 9 8 10 11 12 11 10 10 8 10 9 10 7 4 5 3 3 5 9 10 9 9 8 8 8 8 8 9 10 9 8 9 10 9 9 8 10 11 11 11 11 10 10 9 9 9 9 9 7 6 6 7 8 8 9 10 10 9 9 6 3 3 3 3 4 4 3 6 8 8 8 8 7 6 6 6 5 6
14 1 4 4 4 7 6 8 10 11 11 13 13 12 10 9 9 8 8 10 6 6 5 3 4 6 8 8 8 8 7 7 7 8 7 9 10 10 10 10 9 10 9 10 11 11 11 11 11 10 9 9 9 9 8 7 6 6 6 7 7 8 9 9 9 7 5 3 2 4 3 5 4 3 5 8 8 8 8 7 4 4 2 5 4
17 13 4 6 5 7 8 8 9 11 11 12 13 13 12 12 11 10 9 9 12 8 6 6 6 6 6 7 7 7 7 7 7 8 9 10 10 9 10 10 10 10 10 10 10 11 11 11 10 10 9 9 9 8 7 7 5 5 6 6 6 7 8 8 7 4 4 3 0 1 4 6 2 3 6 5 6 7 7 6 5 4 4 2 4
18 15 12 3 8 5 5 5 7 8 10 10 10 12 12 12 13 13 12 11 10 8 8 4 3 4 8 7 6 6 7 7 7 7 9 9 10 10 11 11 11 10 10 10 10 10 11 10 10 9 9 9 8 7 6 5 5 4 4 6 7 8 9 9 5 4 3 3 2 3 3 3 1 1 7 6 8 5 5 6 5 3 4 5 3
15 15 14 12 10 6 7 8 4 5 8 8 8 9 10 11 11 13 13 13 12 11 9 8 9 11 8 8 7 7 7 7 7 7 7 9 10 10 11 11 11 11 10 10 10 10 10 10 10 9 9 8 8 7 6 5 4 3 5 6 7 8 7 7 3 3 4 4 1 3 2 0 3 5 6 5 5 6 7 7 8 5 3 3 4
15 15 14 15 14 19 17 13 11 3 5 7 5 5 7 9 9 10 10 12 12 12 11 10 9 10 7 8 9 8 7 7 7 7 6 9 9 10 10 11 11 11 12 12 10 10 9 9 10 9 8 8 7 6 5 4 4 4 5 6 6 6 7 5 4 3 4 4 1 1 2 1 3 6 6 5 5 5 6 3 3 2 3 5 5
14 16 16 12 12 10 20 20 19 13 6 6 7 6 5 6 8 8 8 8 10 11 11 10 9 8 6 7 9 8 8 7 4 3 5 4 7 9 10 10 10 11 11 11 10 9 8 8 8 7 7 7 7 6 5 5 4 4 4 4 5 5 5 3 3 4 5 3 1 1 3 1 5 6 6 4 4 5 4 4 4 3 3 2 2
13 15 14 13 12 10 11 16 20 22 17 2 8 6 7 8 7 8 8 8 8 9 10 11 10 9 8 7 8 8 7 7 3 3 3 5 6 8 9 10 10 10 11 10 10 9 8 8 7 7 7 8 7 6 5 5 4 4 3 3 4 4 5 5 4 3 3 4 2 1 2 2 5 6 4 5 5 6 6 6 7 5 5 6 6
14 14 13 15 15 13 12 12 14 20 16 19 10 9 8 8 7 8 7 8 9 9 9 9 8 8 8 8 8 8 8 7 6 5 5 4 6 6 6 8 11 12 10 10 10 9 9 8 7 6 7 9 8 6 5 5 4 3 2 3 5 7 6 5 3 3 4 3 1 2 1 0 4 4 4 3 5 6 6 7 8 8 8 9 8
11 12 14 15 14 13 12 11 13 12 12 12 15 12 9 8 7 7 7 6 6 9 8 8 7 7 7 7 7 9 9 8 8 8 7 6 6 5 4 6 7 8 11 11 10 10 8 7 6 7 7 9 8 6 5 5 4 3 1 3 6 5 4 5 3 3 3 2 1 1 1 1 3 3 3 5 5 5 6 6 6 7 8 8 8
11 11 11 14 14 14 12 12 12 11 12 9 8 10 11 9 7 7 7 8 7 9 9 8 8 7 7 7 8 9 8 7 8 8 7 5 6 7 4 1 7 9 11 11 10 9 7 6 5 6 7 9 8 6 5 4 3 2 1 3 5 3 4 4 3 2 2 1 2 1 2 1 5 5 6 6 7 6 6 7 8 10 9 9 10
10 12 12 13 13 13 13 11 11 12 11 10 10 9 10 10 7 7 8 9 9 9 9 8 8 8 7 8 8 7 7 5 7 6 8 9 7 5 2 0 7 8 9 10 9 9 7 6 5 7 8 8 7 5 4 4 3 2 1 3 3 3 3 2 2 3 2 2 1 1 2 4 4 4 5 7 8 7 7 8 9 10 10 10 11
8 11 11 12 13 14 15 12 12 14 13 11 9 9 9 10 7 8 9 9 9 9 8 7 5 6 7 7 7 6 4 4 5 4 6 6 8 9 4 3 4 7 8 9 9 9 8 7 6 7 7 8 6 6 4 3 2 2 4 4 3 1 0 0 1 2 1 2 0 1 5 4 4 5 6 7 6 6 7 9 10 11 12 12 12
10 11 9 11 12 12 15 13 13 15 14 10 8 7 7 9 2 2 5 7 7 7 6 5 6 4 6 6 5 4 4 4 5 6 4 5 8 11 9 5 4 7 8 9 9 9 9 7 7 7 7 7 6 3 1 1 2 2 2 4 2 2 1 1 3 2 2 1 1 2 3 4 6 8 8 7 8 9 9 9 9 10 11 12 12
12 9 11 12 10 10 11 13 14 14 13 11 8 7 8 6 2 2 2 6 6 6 6 6 4 5 4 4 4 4 4 4 4 5 5 6 7 9 9 6 4 4 8 9 8 8 9 7 7 6 7 7 4 2 1 1 1 2 2 1 1 2 2 0 0 1 2 1 0 2 2 8 8 9 9 9 9 9 9 9 9 9 10 10 10
11 8 10 10 11 10 12 10 12 14 12 10 8 8 6 6 4 1 2 4 6 5 6 5 4 5 5 4 3 4 4 3 6 10 9 5 4 6 7 6 7 4 5 7 7 7 7 7 6 5 5 4 3 2 2 2 2 2 1 2 2 3 2 2 1 0 0 0 1 2 3 4 6 7 7 8 7 7 7 8 8 7 7 8 8
9 9 6 9 11 10 10 10 10 10 11 10 9 8 8 6 4 3 2 4 4 5 5 5 5 5 5 4 4 5 5 4 4 4 4 4 4 4 4 4 3 4 3 3 4 4 5 4 3 4 3 4 3 3 3 3 3 2 3 3 3 3 3 3 2 2 2 2 2 2 3 5 4 4 4 4 4 5 5 6 7 6 5 6 7
9 10 9 9 11 10 11 10 10 9 10 9 10 10 10 7 5 5 5 4 4 5 5 4 4 5 4 4 5 5 5 5 5 4 3 4 4 4 3 3 3 3 3 4 3 3 4 4 2 3 3 3 4 4 4 4 4 4 4 3 4 4 4 4 3 3 3 2 3 6 7 7 7 8 7 6 6 6 7 8 9 9 8 7 6
10 10 10 9 10 11 11 11 11 9 10 9 8 8 9 8 5 5 5 5 5 4 5 3 3 2 2 4 4 5 4 4 4 4 4 4 4 3 4 4 4 4 4 4 4 4 4 3 3 2 1 2 4 4 4 4 3 4 4 4 4 5 5 4 3 3 3 3 4 7 6 7 7 10 10 9 9 8 8 8 8 8 8 8 8
8 8 10 10 10 13 12 12 11 10 10 9 8 8 8 8 6 6 6 6 2 1 0 2 4 4 5 2 2 1 4 4 4 4 3 2 3 2 3 3 2 3 4 4 4 4 4 2 1 1 2 3 4 4 4 4 5 4 4 4 4 5 4 3 3 3 3 4 4 6 7 8 8 10 11 11 10 9 8 9 8 7 8 7 8
10 10 10 11 11 11 12 12 11 10 10 8 7 6 7 6 7 5 4 7 6 7 6 7 7 6 6 6 3 2 3 2 3 3 3 3 2 4 3 3 2 4 3 1 2 2 1 1 2 3 3 4 4 5 5 4 4 3 3 3 3 3 4 4 3 3 3 4 4 5 7 8 8 9 11 11 10 8 8 9 9 8 8 8 9
10 10 10 10 11 12 12 12 11 9 10 8 6 6 6 7 8 8 5 6 6 6 6 6 6 6 5 6 6 5 4 4 4 3 3 2 2 2 2 2 4 2 2 4 3 2 3 3 3 3 4 4 5 5 2 3 2 1 2 3 3 3 2 3 3 3 3 4 4 4 7 8 7 8 10 11 11 12 11 10 10 12 11 10 10
9 10 9 9 10 12 12 12 11 11 9 9 8 7 6 6 7 7 6 8 6 7 7 6 7 7 6 7 6 6 5 5 4 4 4 4 3 3 3 1 2 0 0 0 1 2 2 4 5 5 5 4 5 3 3 3 1 2 1 3 2 1 3 2 2 2 3 3 3 3 4 7 9 11 11 16 16 15 16 16 17 15 15 15 14
10 11 10 8 9 11 12 11 11 10 9 9 7 7 7 7 8 6 7 6 7 6 6 8 8 7 6 6 5 4 5 6 6 6 5 5 5 6 6 6 6 4 3 1 2 2 2 2 2 4 5 4 3 3 2 3 2 0 2 3 4 4 4 2 2 4 4 3 5 6 6 9 18 17 17 19 18 17 18 18 17 15 15 16 17
7 10 11 10 10 10 10 11 9 10 10 9 8 7 7 7 6 7 6 6 6 5 7 7 6 7 6 6 5 5 4 5 6 7 7 6 5 5 5 5 5 4 5 5 4 3 3 5 4 1 1 1 2 2 3 4 5 5 5 5 4 4 3 4 6 6 7 7 7 6 7 8 8 11 17 20 17 18 18 18 17 18 18 18 17
7 9 11 11 9 7 7 8 9 9 10 9 7 7 7 7 7 6 6 6 7 7 7 6 6 6 6 6 6 6 6 7 7 8 7 6 5 5 6 5 4 4 5 6 5 5 5 6 5 4 4 4 5 5 6 6 5 4 5 4 5 5 5 7 7 7 7 7 7 7 7 8 7 7 7 14 17 18 19 19 19 19 19 20 20
4 8 11 12 10 9 8 7 8 7 8 10 10 8 7 7 7 7 7 7 7 8 6 7 7 6 6 7 7 6 9 9 8 7 8 7 6 6 7 5 4 4 5 6 5 7 7 6 5 5 5 5 5 5 5 4 5 5 4 4 5 6 6 7 6 7 7 7 8 8 8 8 8 7 7 7 10 18 19 19 20 20 20 20 20
5 5 10 10 10 10 10 9 10 9 6 6 7 8 7 8 7 7 6 7 8 8 9 8 6 7 7 7 7 7 10 7 7 7 8 7 6 7 6 6 6 4 5 6 7 7 6 6 6 5 5 5 5 5 4 4 4 5 5 5 5 7 7 7 8 7 7 7 8 9 8 8 8 8 8 8 7 11 18 18 20 22 21 21 21
9 7 8 9 10 10 9 10 9 9 7 4 5 8 9 9 7 6 7 7 9 9 8 7 7 8 7 6 6 6 8 8 7 9 8 7 7 7 7 6 6 6 6 5 6 5 5 5 6 7 5 4 5 4 3 3 4 4 4 5 9 10 8 8 8 7 7 9 9 9 8 9 8 9 8 8 8 7 11 17 19 22 22 21 21
10 12 7 8 7 7 8 8 8 6 6 6 5 6 6 7 7 6 7 8 9 8 7 8 8 7 7 6 8 9 8 9 10 8 8 7 7 6 6 7 5 7 7 8 7 6 6 5 6 7 6 5 5 4 3 4 2 3 4 8 10 9 8 8 7 8 8 9 9 9 9 8 9 9 9 9 8 8 7 11 16 17 20 19 20
9 11 10 8 7 7 6 8 8 9 6 7 5 4 6 5 5 7 9 9 9 9 8 9 8 7 8 8 10 7 8 10 10 9 8 7 7 7 7 8 6 6 7 7 7 6 6 6 6 5 6 7 5 4 2 2 2 4 7 9 10 9 8 7 7 8 8 8 9 7 6 8 8 9 8 8 8 8 8 8 8 8 10 18 18
6 9 10 9 9 8 8 8 9 10 7 5 6 4 4 4 7 5 8 8 9 9 9 9 8 8 8 9 9 8 9 9 8 8 8 7 7 7 7 6 6 6 7 8 6 6 6 6 7 5 5 4 6 5 4 3 6 9 9 9 9 9 9 8 9 8 8 10 8 7 8 7 8 8 9 8 7 8 8 8 8 7 7 11 18
10 7 7 7 6 7 9 9 9 10 8 7 6 6 5 5 5 8 8 7 8 8 8 8 9 8 9 9 9 8 8 8 9 8 8 7 7 6 7 7 6 7 7 7 6 7 6 5 5 6 6 6 8 8 6 3 5 8 7 8 9 8 8 9 10 9 10 8 7 7 7 8 8 8 7 7 8 9 8 8 8 8 8 8 9
9 10 8 7 7 7 9 9 8 8 8 7 7 6 5 5 5 6 7 8 7 8 8 8 9 9 9 9 9 8 9 9 9 9 9 8 7 7 7 7 6 6 7 7 8 8 8 7 3 6 7 8 7 8 7 2 2 4 8 4 4 4 7 9 9 9 8 8 8 8 8 9 10 8 7 8 8 9 9 8 8 9 8 8 8
5 7 7 8 8 8 7 6 7 7 7 7 6 6 5 4 4 5 7 7 7 7 8 8 7 8 9 9 9 9 10 10 10 9 7 8 7 7 7 6 7 5 7 9 9 9 8 8 7 4 4 7 7 8 9 7 2 2 1 5 3 3 2 4 5 8 8 8 8 9 8 8 9 8 7 7 8 9 9 9 9 9 9 9 8
4 7 7 7 6 7 8 8 8 8 7 6 3 3 4 4 5 5 6 6 6 6 7 7 8 8 9 9 9 9 10 10 10 9 8 8 8 7 6 7 8 7 7 8 9 9 8 8 7 8 4 7 8 9 9 8 6 1 4 1 2 1 3 2 3 2 5 8 8 9 8 7 7 8 7 10 9 9 8 8 9 9 9 8 8
4 5 7 7 5 7 7 7 6 6 6 6 6 4 4 4 5 6 6 7 7 6 7 8 8 8 9 10 9 9 9 9 9 9 8 9 9 8 8 7 7 7 7 8 8 9 9 8 8 8 9 6 7 7 10 11 13 10 3 3 3 2 1 2 2 1 2 5 7 7 9 9 8 9 8 9 8 8 8 9 9 8 8 8 8
3 4 3 4 6 6 7 7 6 6 7 7 7 5 5 6 6 6 7 7 8 8 9 8 8 8 9 7 9 9 9 9 9 9 9 8 8 8 8 8 8 8 7 7 8 8 9 10 9 7 9 9 6 8 9 10 12 13 14 10 5 2 1 3 2 1 2 4 6 6 10 11 8 9 8 10 10 8 8 8 8 9 8 8 8
2 2 3 3 3 4 4 5 5 5 6 7 7 6 7 6 7 7 7 7 8 6 6 6 6 6 6 8 8 9 9 9 9 9 9 8 8 8 8 8 9 8 7 7 9 9 8 8 6 8 8 7 7 10 8 5 6 11 10 10 11 9 7 4 3 2 3 1 4 7 8 11 8 9 9 11 10 9 8 7 8 8 7 7 8
1 2 3 3 5 4 4 5 5 5 5 5 7 6 6 6 6 7 7 7 7 6 5 6 6 5 8 8 7 8 8 8 8 9 9 8 8 8 9 9 9 8 8 9 9 8 7 8 9 9 9 9 9 9 10 8 7 6 7 8 9 10 10 9 7 4 2 4 6 4 5 9 7 7 8 10 10 8 7 7 7 7 6 7 7
0 2 2 2 2 3 4 5 7 6 7 7 6 6 6 5 6 5 7 5 5 5 5 5 6 6 9 8 8 7 8 8 8 8 8 8 8 8 8 9 9 8 8 8 8 9 9 8 9 9 10 9 9 6 7 7 7 5 5 6 6 7 7 8 8 6 5 4 3 7 11 5 3 4 6 8 8 6 6 5 7 7 5 6 7
1 1 1 2 3 3 5 6 6 6 5 6 6 6 5 5 6 5 7 6 5 6 5 6 6 5 8 7 7 7 6 7 8 8 8 8 8 8 8 8 8 8 8 8 8 9 9 10 9 9 8 10 8 9 9 7 7 7 8 5 7 4 4 5 7 6 4 5 3 5 8 11 11 6 5 8 9 6 6 5 7 7 5 6 6
2 2 3 3 3 4 4 6 4 4 5 5 5 5 4 4 5 5 5 6 5 5 6 6 6 6 7 6 6 6 6 6 6 7 7 7 7 7 7 7 7 7 7 8 8 8 7 8 8 9 10 10 8 9 9 8 7 8 8 8 7 8 6 7 5 5 4 2 4 3 5 5 7 9 7 8 6 6 4 4 7 7 4 6 6
Wind_Direction
244 242 197 182 164 160 151 148 135 132 138 145 156 158 148 141 140 143 137 128 126 125 124 123 124 130 128 125 119 115 115 116 116 117 115 105 97 100 106 109 111 115 14 98 99 94 86 84 84 85 85 85 84 82 79 78 79 78 80 84 80 75 71 72 77 74 75 71 77 79 77 77 85 87 79 77 77 80 79 66 48 47 76 74 71
308 275 205 188 170 161 154 149 138 134 136 154 158 150 144 144 142 141 140 131 129 128 130 129 128 128 128 124 122 116 116 116 115 112 108 110 109 108 113 113 118 116 91 106 104 98 92 88 86 86 85 85 85 84 83 81 78 77 80 84 85 77 59 56 65 80 71 78 82 84 85 90 84 75 78 76 76 87 89 75 51 28 352 63 68
321 305 289 240 170 169 158 150 142 133 125 139 141 126 133 130 140 148 142 137 131 128 134 126 131 131 128 128 128 123 123 123 119 117 117 119 120 119 116 120 117 119 104 110 112 100 97 93 89 87 85 85 86 86 85 82 76 73 71 71 64 54 52 53 61 74 66 53 50 62 74 79 80 75 82 82 76 73 82 76 69 45 69 74 82
329 292 313 253 179 185 159 155 147 137 133 127 137 146 142 140 148 149 148 139 135 134 135 137 137 135 129 129 128 127 125 123 119 120 119 122 128 122 119 124 130 127 123 126 113 107 105 98 92 90 88 87 87 88 88 87 78 72 68 63 57 50 46 42 41 38 34 32 40 48 45 75 90 91 78 81 71 64 50 60 79 78 65 67 73
331 314 290 278 207 190 177 154 151 144 135 130 133 143 146 143 138 141 151 138 139 136 138 140 145 138 133 128 125 123 123 124 124 123 125 128 127 128 130 137 144 133 127 142 120 112 104 100 96 93 91 90 90 89 88 88 85 73 64 57 53 45 39 36 31 20 3 19 84 62 22 21 4 80 96 84 77 75 63 68 76 80 77 56 58
317 307 270 258 235 227 179 164 153 145 140 133 135 137 141 144 148 149 159 138 135 138 144 149 147 141 134 129 128 125 126 124 126 126 126 131 133 138 140 137 142 134 129 135 119 112 104 97 96 95 95 95 94 92 91 87 86 79 65 52 46 42 42 39 30 13 0 53 113 69 31 345 27 88 88 87 85 76 69 71 68 78 70 60 59
306 290 242 287 223 254 176 172 156 149 140 137 137 144 145 156 159 176 143 131 131 128 126 139 145 144 137 134 134 134 134 135 132 133 131 131 133 133 140 144 149 149 135 129 121 111 105 101 98 101 101 102 100 97 95 91 83 78 66 53 47 47 42 39 29 27 39 59 77 75 46 61 62 36 87 92 90 89 78 67 64 55 64 67 51
308 267 246 267 216 255 190 152 161 152 143 139 142 150 155 171 168 153 135 139 126 135 129 126 144 142 139 137 138 143 143 143 140 139 140 132 132 132 138 143 147 139 140 133 121 112 108 107 107 107 109 107 103 102 98 93 86 74 65 55 48 43 35 28 25 36 44 51 54 66 62 59 56 54 85 85 82 80 79 69 65 64 66 64 36
319 214 262 323 67 267 204 164 159 158 150 144 143 147 145 147 143 144 137 140 127 128 114 121 144 145 141 142 145 145 148 146 147 145 146 142 137 140 138 140 141 140 141 131 121 118 116 117 117 113 113 108 106 103 101 93 86 73 59 49 41 35 31 25 19 34 49 35 91 117 102 90 86 74 88 89 89 84 81 78 71 75 74 69 58
342 39 340 341 242 243 238 176 160 163 160 152 148 147 146 145 144 144 145 137 137 219 139 147 176 156 148 149 148 150 153 154 157 157 151 154 145 146 142 143 147 146 144 135 128 125 125 125 124 122 115 112 109 109 103 100 87 74 60 49 37 31 30 24 21 21 50 33 168 141 135 118 115 117 91 97 98 98 98 107 121 126 113 95 87
356 344 269 310 266 213 230 182 170 166 166 164 157 154 154 152 153 157 160 163 171 169 174 174 196 177 152 156 156 159 162 165 166 160 151 151 152 150 149 148 150 148 144 141 137 132 133 131 128 126 121 118 114 113 108 103 93 75 63 55 38 29 29 22 32 9 36 38 128 137 129 115 122 142 101 90 113 125 131 132 128 148 168 136 105
354 353 343 335 267 256 257 244 167 170 167 168 162 160 160 161 164 166 167 171 172 173 168 176 126 241 161 165 169 167 165 173 174 169 159 160 159 159 156 154 154 152 149 148 143 141 137 133 130 127 126 121 117 110 106 97 90 72 56 51 34 37 25 21 26 11 10 53 219 140 123 136 158 19 40 43 60 97 147 146 156 76 38 33 12
352 356 355 350 326 305 306 285 209 182 164 171 169 166 160 164 166 170 173 172 173 171 171 175 154 226 177 168 171 178 175 180 175 175 171 167 165 165 163 159 159 156 154 150 147 144 139 137 136 132 130 126 120 110 98 92 79 66 49 50 48 45 35 25 27 3 13 32 318 125 106 240 91 87 60 46 63 58 38 11 6 17 23 23 19
355 354 356 357 356 349 347 333 314 138 152 148 144 155 179 171 170 166 167 174 175 175 176 178 184 192 182 172 171 181 181 186 175 173 189 171 173 170 167 165 164 161 157 152 148 141 140 140 136 135 133 133 124 114 107 100 91 62 47 54 49 56 55 26 5 15 4 17 353 159 97 82 109 98 83 66 59 56 54 28 1 27 1 357 348
4 351 352 352 350 346 358 360 355 323 186 144 146 164 212 193 173 170 169 173 178 178 174 179 179 179 176 178 177 181 178 178 156 142 132 158 181 169 169 171 167 165 157 149 142 139 140 139 136 131 135 136 126 123 119 107 99 84 57 50 54 54 59 59 12 17 5 360 358 158 139 166 120 105 87 71 46 44 44 23 35 26 347 325 320
6 358 349 347 347 348 5 354 350 352 341 274 167 208 203 206 180 170 175 175 177 180 179 180 174 173 174 173 178 177 171 157 132 131 140 167 157 163 171 175 168 168 155 148 140 137 140 140 141 145 146 140 131 132 121 117 108 101 78 53 69 55 45 66 25 23 2 7 16 289 157 178 115 88 71 48 39 15 5 11 11 15 18 2 347
7 1 354 350 348 357 0 350 351 345 348 350 316 231 235 217 191 169 174 184 180 177 180 173 174 173 167 168 178 173 168 156 148 141 159 158 149 157 168 172 174 167 152 144 140 143 144 150 156 156 153 146 133 133 123 114 106 88 61 28 34 39 43 58 43 17 13 13 334 288 205 338 99 86 57 34 15 11 359 353 351 349 349 351 346
5 7 358 353 352 353 355 349 348 340 347 341 337 310 277 243 199 174 174 171 168 164 160 164 161 162 165 170 176 177 180 167 156 155 165 159 167 157 169 177 133 201 148 145 147 149 154 150 154 161 165 147 136 138 141 128 114 99 82 54 48 34 28 65 42 28 18 355 300 217 257 160 81 68 45 21 0 3 355 341 325 331 321 313 314
1 8 3 357 353 349 353 352 342 341 338 336 326 319 294 271 224 189 171 159 159 159 162 162 162 162 172 175 175 177 176 174 160 155 140 166 163 163 153 183 158 169 154 154 151 145 135 139 148 161 161 149 142 152 149 132 132 119 90 62 63 27 34 45 46 30 25 347 49 94 222 38 64 52 42 29 13 356 335 328 331 333 323 329 322
4 1 3 360 349 351 353 348 341 338 333 325 321 322 316 273 226 194 168 161 164 162 166 168 169 165 176 176 175 167 160 166 160 158 159 171 172 82 356 27 178 171 153 162 140 137 138 143 157 164 160 157 153 161 158 160 154 129 90 64 43 30 26 17 36 44 1 18 36 81 95 59 38 23 14 10 3 349 332 322 318 320 320 318 312
9 360 3 356 344 351 351 347 341 336 333 327 321 320 322 315 243 177 170 165 165 168 165 167 169 172 171 173 160 155 161 165 161 162 169 170 155 164 196 205 226 152 168 150 144 139 141 144 154 155 161 161 160 164 174 183 156 69 18 25 17 5 294 349 56 88 57 336 341 332 30 6 356 352 345 347 339 332 334 331 328 324 321 318 318
350 350 353 349 351 353 345 345 341 338 329 327 319 310 317 317 283 236 170 173 166 159 159 170 178 180 182 167 163 165 165 166 164 174 179 178 174 180 162 182 196 154 178 147 148 146 144 145 151 159 163 164 158 154 156 102 62 76 339 354 359 308 287 153 101 77 88 27 27 280 1 346 349 341 348 340 339 335 330 330 329 324 321 319 316
345 348 348 347 350 341 342 344 341 328 322 327 318 305 307 313 311 279 245 174 174 169 165 176 179 183 199 180 169 166 166 171 170 177 179 185 184 167 179 160 209 208 164 154 153 154 142 151 165 170 167 156 132 110 119 245 306 255 268 311 273 260 295 7 54 120 125 155 193 276 303 359 333 323 322 326 322 324 331 328 324 325 321 319 320
339 335 339 333 346 344 343 335 337 323 327 325 322 317 309 309 307 294 225 234 178 182 193 184 179 184 187 192 171 157 166 179 185 187 189 176 185 178 184 171 193 202 179 156 165 151 146 162 167 158 154 150 154 157 187 191 217 232 203 221 261 267 254 218 178 188 294 240 219 263 6 340 315 308 306 304 312 320 325 326 325 322 315 313 317
333 327 325 337 338 342 338 334 330 324 333 327 331 329 329 320 328 332 289 226 203 185 193 198 181 181 183 183 168 158 163 173 184 193 169 168 174 177 184 182 191 193 161 172 169 153 156 173 173 150 153 152 147 202 188 204 211 213 227 235 241 260 256 239 213 197 221 245 257 288 278 272 286 292 318 329 348 337 332 331 334 338 330 325 323
333 341 336 329 328 337 337 332 332 331 337 333 332 332 333 316 342 345 330 244 218 199 198 196 185 183 180 174 158 155 163 172 169 172 156 167 184 181 192 186 192 194 169 180 162 158 180 194 186 199 174 166 193 207 210 204 208 217 230 228 232 236 232 240 221 211 241 238 247 245 244 259 269 273 286 300 323 349 345 340 342 344 345 341 336
343 337 334 330 330 333 338 333 336 336 345 340 338 345 332 320 341 347 342 327 224 206 199 190 164 128 156 164 162 158 172 172 172 165 156 167 184 187 189 194 196 185 190 168 173 181 179 188 209 227 220 186 221 226 209 210 201 200 213 220 222 219 226 232 243 253 270 262 259 259 262 265 262 267 276 290 302 332 330 335 338 342 341 347 344
326 336 338 331 332 331 335 335 339 344 341 342 345 356 334 330 348 8 356 336 340 70 73 101 77 49 32 53 154 159 181 158 167 168 161 165 190 163 165 161 158 201 187 174 183 176 199 188 214 247 239 238 222 209 209 204 204 200 189 216 216 219 229 243 245 251 259 266 274 280 277 273 268 272 272 281 302 324 339 348 348 344 352 352 352
338 343 338 333 331 327 326 338 339 346 338 337 346 1 345 331 352 354 23 14 29 51 37 51 48 43 26 19 15 89 43 85 113 135 143 158 154 189 165 155 179 210 204 146 170 206 244 241 221 230 231 232 219 210 205 202 209 208 199 216 224 240 248 255 254 257 262 260 265 270 275 278 273 275 282 292 310 332 356 11 12 5 9 8 8
349 334 338 336 328 324 327 336 339 349 342 337 345 356 348 348 351 346 358 36 24 45 42 47 45 34 28 17 13 43 49 56 50 42 109 119 169 162 142 158 186 234 186 185 175 167 216 221 230 232 227 230 221 230 203 233 252 214 197 233 262 245 268 281 281 265 267 265 271 301 294 289 302 302 312 325 353 6 14 27 20 9 13 10 11
342 340 344 338 329 327 332 335 341 351 352 350 347 354 355 6 350 341 5 27 25 35 44 48 46 39 20 17 4 31 37 42 45 47 56 55 45 47 57 73 77 59 286 160 175 194 236 238 229 217 213 212 224 221 196 221 203 204 211 208 254 265 262 279 293 279 280 318 352 311 334 356 13 29 42 58 50 45 49 46 45 41 34 29 28
352 347 342 334 331 335 329 331 343 342 359 359 352 356 5 14 354 340 0 28 16 47 41 47 47 30 23 15 7 18 38 52 43 30 48 55 48 50 48 40 28 15 4 340 327 320 279 264 214 208 193 182 190 209 175 146 183 20 14 8 1 4 353 355 341 354 10 25 28 34 39 58 61 55 49 44 41 40 44 44 41 40 42 40 33
355 340 338 340 340 336 330 330 341 351 358 359 2 7 12 17 9 356 2 19 39 36 48 41 34 24 15 13 9 26 36 42 49 44 33 38 49 45 49 44 30 14 21 17 43 6 20 22 22 12 93 115 105 38 43 44 37 29 37 20 8 31 11 19 30 43 46 43 46 40 44 48 52 48 44 43 37 35 38 42 42 44 43 41 36
357 342 340 348 342 340 333 327 337 1 7 355 1 7 20 25 21 13 8 25 47 44 46 38 32 21 13 16 6 30 40 48 46 44 39 31 33 48 49 41 17 18 32 25 39 30 42 43 16 24 35 57 49 31 33 32 25 31 36 13 6 9 25 50 56 57 55 47 44 43 39 46 46 42 39 39 35 34 33 38 42 42 42 40 39
351 352 346 347 344 342 339 332 336 354 14 5 0 6 18 34 27 20 12 25 47 44 45 45 32 22 21 23 24 35 46 49 47 53 47 43 28 32 29 21 10 26 49 30 42 49 41 44 28 37 52 44 51 45 39 35 18 23 15 13 18 359 46 67 64 64 60 59 51 46 41 41 39 37 38 37 32 32 30 34 40 40 37 37 37
355 3 350 346 346 346 339 336 342 355 4 13 5 6 15 30 29 27 26 20 47 45 42 44 39 29 26 29 21 36 45 35 43 50 60 47 42 37 23 10 2 31 45 44 48 51 46 40 30 23 49 42 33 38 29 21 8 14 4 13 27 34 55 51 51 49 48 57 55 53 45 44 41 38 37 37 36 32 29 33 38 37 35 33 35
3 356 359 339 349 346 346 339 344 348 345 354 17 20 25 27 23 21 25 29 47 46 40 43 44 37 28 24 27 45 48 49 44 48 54 47 44 40 26 18 22 25 42 45 48 31 38 49 36 27 32 56 42 27 33 19 12 11 7 36 62 67 56 51 48 49 46 49 44 44 44 40 37 39 40 37 35 32 26 33 37 37 35 31 32
2 357 357 338 341 335 342 344 340 333 349 351 19 24 30 34 30 23 21 36 41 45 44 45 45 36 30 23 32 40 48 53 51 49 55 47 45 39 25 16 21 43 41 47 46 37 34 41 60 41 29 46 42 24 18 13 5 351 51 76 80 78 67 59 59 55 53 52 47 39 32 32 32 32 34 34 34 30 25 29 33 36 35 34 33
4 359 344 342 340 335 335 345 350 347 351 353 345 31 29 32 39 36 36 35 39 38 36 44 41 36 32 23 37 31 45 49 48 49 53 50 48 43 41 30 36 49 58 53 50 46 51 48 63 62 53 53 45 20 12 21 332 71 77 77 84 81 76 68 63 60 57 54 51 47 42 34 32 31 28 29 31 30 28 29 29 31 27 31 36
15 8 355 350 350 338 340 359 351 344 349 360 355 5 23 20 35 34 45 39 39 44 39 45 40 36 32 35 33 28 38 47 47 46 51 48 49 43 44 35 36 48 58 56 44 40 41 51 49 56 62 61 49 28 21 359 92 82 82 77 70 75 72 69 64 59 55 50 46 42 41 34 34 32 27 22 26 27 29 27 28 26 28 26 34
352 355 355 354 347 354 360 10 347 348 357 2 18 9 17 7 27 46 53 41 40 42 44 41 45 36 30 33 36 37 39 45 48 52 49 51 51 47 46 41 35 49 56 58 50 48 37 44 56 47 45 44 24 11 9 341 121 90 89 88 81 71 74 70 66 61 58 51 44 41 37 38 33 31 26 21 23 25 25 25 24 24 26 26 29
349 336 348 331 346 357 14 2 360 358 353 8 3 16 27 35 31 45 57 52 45 39 39 36 40 34 28 30 34 37 45 48 46 45 46 46 49 47 45 40 38 48 59 60 51 45 39 34 15 66 47 59 49 8 3 10 29 129 130 115 92 87 74 68 66 59 61 55 45 40 32 32 30 22 24 21 21 22 23 22 24 27 26 26 29
332 327 341 341 357 4 4 1 4 357 7 347 5 16 19 28 31 53 62 70 63 67 71 59 57 51 40 35 37 35 39 39 36 40 46 44 45 49 46 42 42 42 55 56 53 48 38 32 28 50 64 53 62 27 24 23 120 329 47 105 171 142 187 64 54 61 59 56 49 43 33 32 28 20 21 23 22 19 19 19 23 27 26 27 32
342 358 344 352 359 1 7 3 5 6 356 345 14 7 10 27 42 45 55 63 67 62 61 64 63 61 54 43 39 42 40 45 41 41 41 40 43 47 50 49 43 39 52 57 52 49 36 36 35 37 43 68 45 41 27 29 44 320 103 85 156 142 159 52 11 44 65 61 56 46 35 28 24 23 24 27 19 18 17 18 23 27 26 30 34
351 355 348 360 356 2 3 5 6 9 355 0 8 18 22 27 36 48 46 48 44 44 50 47 44 47 51 43 35 39 43 49 49 48 50 48 47 44 47 49 52 47 52 58 55 51 45 30 29 46 40 59 68 60 40 32 41 35 57 104 84 55 49 348 342 28 27 63 51 49 36 22 22 22 23 20 17 19 15 16 20 25 27 32 30
2 350 351 357 3 352 8 9 15 10 5 8 13 27 39 44 39 43 47 44 47 33 36 35 34 38 46 41 38 37 41 45 45 46 45 49 50 50 52 56 52 51 51 56 61 53 47 44 29 36 47 34 70 66 61 40 45 46 53 60 42 70 356 320 9 149 90 88 58 50 32 20 16 21 22 17 13 12 14 14 16 20 25 31 27
337 319 7 6 9 15 11 18 22 21 10 18 18 24 37 41 51 59 60 59 70 53 45 42 49 47 51 49 46 41 37 44 44 41 44 46 48 49 52 54 56 56 52 58 58 55 50 48 45 48 50 46 44 65 40 28 46 44 46 54 60 57 40 40 36 304 352 359 64 23 25 16 10 22 19 13 7 7 9 12 12 18 21 31 25
297 354 13 13 24 15 23 27 28 29 27 28 34 31 49 39 50 56 62 60 65 70 48 48 46 50 53 44 45 44 39 39 44 41 40 44 45 47 48 52 55 53 55 55 52 50 59 54 50 53 56 52 52 69 68 35 53 56 38 49 53 52 45 49 40 51 65 330 323 12 68 11 4 25 16 7 1 1 3 5 9 15 21 25 24
349 33 22 2 4 16 38 37 37 33 28 31 39 33 50 61 65 65 70 55 64 59 53 46 47 36 54 39 42 37 39 39 39 43 39 40 45 48 48 53 53 51 54 58 57 57 53 54 54 55 56 57 54 53 63 50 48 45 48 42 50 53 49 51 34 34 44 15 323 358 333 355 9 21 13 3 348 355 4 1 8 13 21 24 22
308 339 29 28 15 25 40 41 31 29 25 33 43 42 42 55 65 70 83 76 70 66 63 60 53 46 59 47 42 42 37 40 38 39 44 40 46 48 51 53 55 57 57 57 59 57 54 56 54 60 60 68 58 61 66 66 64 59 58 61 60 44 61 46 40 31 29 59 23 326 343 340 343 337 360 356 341 346 357 4 11 12 18 23 21
335 16 12 25 20 37 47 51 25 30 29 36 47 46 48 54 71 71 77 80 68 72 72 60 59 57 67 57 52 50 43 46 41 41 43 40 47 50 54 56 57 56 57 56 54 58 55 59 59 59 57 59 57 61 64 62 64 61 56 54 60 57 59 57 34 29 47 21 359 331 332 333 310 317 340 341 333 331 359 354 18 5 14 18 17